軌道要素
Epoch 2018 Mar. 23.0 TT = JDT 2458200.5
T 2018 Apr. 6.89603 TT MPCW
q 1.8791675 (2000.0) P Q
n 0.00602769 Peri. 325.00189 +0.40125898 -0.87579884
a 29.9021254 Node 260.00198 -0.76591787 -0.48144284
e 0.9371561 Incl. 164.19259 -0.50235549 +0.03448459
P 164
From 148 observations 2017 Nov. 6-2018 July 15, mean residual 0".6.
|